TimeEST,TemperatureF,Dew PointF,Humidity,Sea Level PressureIn,VisibilityMPH,Wind Direction,Wind SpeedMPH,Gust SpeedMPH,PrecipitationIn,Events,Conditions,WindDirDegrees,DateUTC
12:54 AM,59.0,39.9,49,30.29,10.0,South,21.9,34.5,N/A,,Clear,180,2012-11-12 05:54:00
1:54 AM,59.0,39.9,49,30.31,10.0,South,20.7,34.5,N/A,,Clear,190,2012-11-12 06:54:00
2:54 AM,59.0,39.9,49,30.28,10.0,South,18.4,29.9,N/A,,Clear,180,2012-11-12 07:54:00
3:54 AM,59.0,39.9,49,30.28,10.0,South,15.0,24.2,N/A,,Clear,180,2012-11-12 08:54:00
4:54 AM,59.0,39.9,49,30.28,10.0,South,25.3,33.4,N/A,,Clear,170,2012-11-12 09:54:00
5:54 AM,57.9,39.9,51,30.28,10.0,South,19.6,27.6,N/A,,Clear,180,2012-11-12 10:54:00
6:54 AM,57.9,39.0,49,30.28,10.0,South,18.4,24.2,N/A,,Partly Cloudy,190,2012-11-12 11:54:00
7:54 AM,57.9,39.9,51,30.29,10.0,South,13.8,18.4,N/A,,Clear,190,2012-11-12 12:54:00
8:54 AM,60.1,41.0,49,30.27,10.0,South,18.4,31.1,N/A,,Scattered Clouds,180,2012-11-12 13:54:00
9:54 AM,60.1,42.1,51,30.26,10.0,South,17.3,27.6,N/A,,Mostly Cloudy,180,2012-11-12 14:54:00
10:54 AM,64.0,41.0,43,30.24,10.0,South,18.4,32.2,N/A,,Mostly Cloudy,180,2012-11-12 15:54:00
11:54 AM,64.9,41.0,42,30.21,10.0,South,17.3,28.8,N/A,,Scattered Clouds,180,2012-11-12 16:54:00
12:54 PM,69.1,42.1,38,30.19,10.0,South,20.7,35.7,N/A,,Scattered Clouds,190,2012-11-12 17:54:00
1:54 PM,69.1,42.1,38,30.18,10.0,South,18.4,33.4,N/A,,Partly Cloudy,180,2012-11-12 18:54:00
2:54 PM,70.0,43.0,38,30.17,10.0,South,20.7,28.8,N/A,,Scattered Clouds,180,2012-11-12 19:54:00
3:54 PM,68.0,45.0,43,30.14,10.0,South,16.1,25.3,N/A,,Clear,180,2012-11-12 20:54:00
4:54 PM,66.0,45.0,47,30.11,10.0,South,9.2,19.6,N/A,,Clear,190,2012-11-12 21:54:00
5:54 PM,64.9,42.1,43,30.11,10.0,South,10.4,-,N/A,,Clear,190,2012-11-12 22:54:00
6:54 PM,64.9,39.0,39,30.07,10.0,South,19.6,35.7,N/A,,Clear,180,2012-11-12 23:54:00
7:54 PM,63.0,43.0,48,30.07,10.0,South,19.6,39.1,N/A,,Clear,190,2012-11-13 00:54:00
8:54 PM,63.0,46.0,54,30.04,10.0,South,18.4,33.4,N/A,,Mostly Cloudy,180,2012-11-13 01:54:00
9:54 PM,62.1,48.0,60,30.03,10.0,South,17.3,35.7,N/A,,Mostly Cloudy,170,2012-11-13 02:54:00
10:54 PM,63.0,48.9,60,30.01,10.0,South,23.0,29.9,N/A,,Mostly Cloudy,180,2012-11-13 03:54:00
11:54 PM,64.0,50.0,60,29.98,10.0,South,26.5,36.8,N/A,,Overcast,180,2012-11-13 04:54:00